Location: Cabri�res
(43.7840°N, 5.4986°E)
Time: 08:45:05
(UTC+00:00)

Daily predictions for brighter satellites

Satellite Brightness Start Highest point End
(mag) Time Altitude Azimuth Time Altitude Azimuth Time Altitude Azimuth
Meteor 1-16 Rocket 4.3 18:32:01 10° S 18:37:15 54° E 18:42:41 10° NNE
CZ-2C R/B 3.4 18:33:51 10° SE 18:38:19 39° ENE 18:42:43 10° N
STARLINK-29 3.1 18:38:45 10° SW 18:41:51 50° SE 18:44:58 10° ENE
Aureole 1 Rocket 4.3 18:37:16 10° S 18:44:32 52° ESE 18:50:18 10° NNE
SJ-6B 3.8 18:41:14 10° SE 18:44:51 31° ENE 18:48:30 10° N
IRIDIUM 104 4.3 18:41:35 10° N 18:46:48 68° E 18:51:59 10° S
BREEZE-M DEB (TANK) 4.4 18:39:43 10° WNW 18:47:31 52° N 18:50:33 10° E
STARLINK-60 3.5 18:46:12 10° WSW 18:49:27 61° NNW 18:52:43 10° NE
ARGOS Delta rocket 4.2 18:45:47 10° SSE 18:51:07 83° ENE 18:56:38 10° N
Cosmos 2369 Rocket 3.2 18:45:52 10° NW 18:51:19 49° WSW 18:56:42 10° S
IRIDIUM 114 4.3 18:50:43 10° N 18:55:58 82° E 19:01:11 10° S
Cosmos 2058 Rocket 3.7 18:54:20 10° SSE 18:58:25 35° E 19:02:30 10° NNE
Cosmos 1726 Rocket 3.6 18:56:41 10° S 19:01:00 58° E 19:05:23 10° NNE
SL-08 RB Rocket 4.2 18:57:32 10° SE 19:01:49 42° ENE 19:06:11 10° N
STARLINK-1228 3.6 19:00:30 10° NW 19:03:17 38° NNE 19:05:31 14° E
Cosmos 1461 3.3 18:59:16 10° NNW 19:03:45 56° NE 19:08:01 12° SE
IRIDIUM 103 4.5 18:59:54 10° N 19:05:09 83° W 19:10:22 10° S
Cosmos 1726 2.9 19:02:04 10° SSW 19:05:44 57° W 19:09:25 10° N
SL-4 R/B 3.0 19:02:55 10° W 19:06:06 36° NNW 19:09:18 10° NE
Cosmos 921 Rocket 3.7 19:02:32 10° N 19:06:23 35° ENE 19:09:43 13° SE
Cosmos 1703 3.2 19:03:00 10° N 19:06:58 73° E 19:10:56 10° SSE
Cosmos 407 Rocket 3.4 19:03:57 10° S 19:09:04 73° ESE 19:14:11 10° NNE
Cosmos 1437 3.8 19:06:15 10° NNW 19:09:09 43° W 19:12:01 10° S
Cosmos 1908 3.1 19:05:37 10° S 19:09:27 73° E 19:13:21 10° NNE
Cosmos 2184 Rocket 4.1 19:03:16 10° N 19:09:34 87° W 19:15:46 10° S
Cosmos 1340 Rocket 3.1 19:06:02 10° S 19:09:55 47° E 19:13:48 10° NNE
Cosmos 1825 Rocket 3.7 19:05:56 10° N 19:10:21 77° W 19:14:40 10° S
FREGAT/IRIS 2.2 19:07:54 10° SSE 19:10:36 82° ENE 19:13:20 10° N
Cosmos 2228 3.0 19:07:36 10° S 19:11:54 89° WNW 19:16:17 10° N
STARLINK-1201 4.1 19:09:17 10° NW 19:12:19 34° NNE 19:14:33 15° E
Cosmos 676 Rocket 4.4 19:07:52 10° S 19:12:45 39° ESE 19:17:37 10° NE
Cosmos 1656 Rocket 4.0 19:07:35 10° NNW 19:13:12 68° WSW 19:18:41 10° SSE
Cosmos 1328 3.7 19:09:39 10° N 19:13:41 84° E 19:17:41 10° S
ATLAS 5 CENTAUR R/B 4.3 19:13:01 10° SSE 19:16:07 12° SE 19:18:54 11° SE
Cosmos 1943 4.5 19:10:46 10° SW 19:16:10 45° WNW 19:21:39 10° NNE
MOS 1 4.3 19:12:10 10° SSE 19:17:48 86° ENE 19:23:30 10° NNW
MetOp-A 4.4 19:13:37 10° SE 19:18:44 48° ENE 19:23:52 10° N
H-2A R/B 4.5 19:16:11 10° WSW 19:20:11 12° SW 19:22:39 10° SSW
Resurs 01 Rocket 2.7 19:17:43 17° ESE 19:20:13 28° ENE 19:23:58 10° N
STARLINK-52 3.1 19:19:01 10° WSW 19:22:12 76° NNW 19:25:25 10° NE
MOS 1 Rocket 4.1 19:18:41 10° NNE 19:23:47 40° E 19:28:51 10° SSE
Nadezhda 1 Rocket 4.0 19:17:44 10° S 19:24:09 85° E 19:30:31 10° N
BREEZE M DEB (TANK) 2.9 19:22:10 10° SSW 19:24:53 41° SE 19:31:14 10° ENE
CZ-2C R/B 3.1 19:20:18 10° NNE 19:25:05 37° E 19:29:53 10° SSE
SPOT 3 Rocket 3.6 19:22:44 10° SSE 19:27:47 61° ENE 19:32:55 10° N
Cosmos 1023 Rocket 4.4 19:22:51 10° SSW 19:28:01 81° ESE 19:33:10 10° NNE
ARGOS 3.3 19:23:51 10° S 19:29:14 79° WSW 19:34:39 10° NNW
FALCON 9 DEB 3.5 19:27:04 10° WSW 19:30:33 67° NNW 19:34:02 10° NE
Cosmos 2154 Rocket 4.0 19:26:13 10° N 19:32:36 89° W 19:38:54 10° S
GEOS 3 Rocket 4.2 19:27:39 10° SSE 19:32:40 55° WSW 19:37:48 10° NW
Cosmos 1953 Rocket 4.0 19:28:57 10° NNW 19:33:25 65° W 19:37:51 10° S
Cosmos 1954 Rocket 4.0 19:29:10 10° S 19:34:18 59° ESE 19:39:26 10° NNE
Cosmos 2181 Rocket 4.4 19:28:47 10° SSE 19:34:31 40° E 19:40:12 10° NNE
USA 186 2.9 19:31:43 10° S 19:34:52 43° W 19:37:54 10° NNW
NOSS 3-4 (A) 4.0 19:28:23 10° NW 19:35:27 75° WSW 19:42:33 13° SSE
NOSS 3-4 (C) 4.0 19:28:29 10° NW 19:35:33 76° WSW 19:42:37 13° SSE
MINOTAUR IV R/B 4.5 19:31:11 10° SSW 19:35:36 65° ESE 19:40:03 10° NNE
STARLINK-67 2.8 19:36:20 10° WNW 19:38:50 54° SW 19:39:24 41° S
Meteor 1-11 4.5 19:37:55 10° NNW 19:43:39 72° W 19:49:16 10° S
BREEZE-M DEB (TANK) 3.9 19:40:19 10° SW 19:45:33 33° SSE 19:45:56 32° SE
Cosmos 1076 Rocket 4.4 19:41:54 10° NNE 19:45:39 29° ENE 19:46:20 27° E
STARLINK-1200 4.5 19:46:53 10° NW 19:50:49 40° NNE 19:52:31 27° ENE
STARLINK-1234 2.8 19:52:18 10° WNW 19:55:25 77° SW 19:55:47 63° SSE
STARLINK-1192 4.4 19:51:51 10° NW 19:55:49 43° NNE 19:57:18 30° ENE
STARLINK-1209 2.8 19:52:46 10° WNW 19:55:52 71° SW 19:56:15 61° SSE
STARLINK-1233 2.7 19:53:10 10° NW 19:56:19 79° NE 19:56:39 66° E
STARLINK-1212 2.7 19:53:37 10° NW 19:56:46 80° NNE 19:57:04 69° E
STARLINK-1105 2.7 19:54:03 10° NW 19:57:13 81° NE 19:57:31 69° E
STARLINK-1206 2.7 19:54:32 10° NW 19:57:40 81° NE 19:57:55 72° E
STARLINK-1247 2.7 19:55:00 10° NW 19:58:08 82° NE 19:58:22 73° E
STARLINK-1227 2.7 19:55:24 10° NW 19:58:33 83° NE 19:58:47 73° E
STARLINK-1218 2.7 19:55:54 10° NW 19:59:01 84° NNE 19:59:13 76° E
Iridium 4 Rocket 3.8 19:55:30 10° NNE 19:59:06 31° ENE 19:59:06 31° ENE
STARLINK-1226 2.7 19:56:20 10° NW 19:59:28 84° NE 19:59:40 76° E
STARLINK-1254 2.7 19:56:45 10° NW 19:59:54 85° NE 20:00:06 77° ESE
Cosmos 1980 Rocket 4.2 19:57:23 10° NNE 20:00:01 13° NE 20:02:02 11° ENE
STARLINK-1215 2.7 19:57:15 10° NW 20:00:23 86° NE 20:00:31 80° ESE
STARLINK-1231 2.7 19:57:42 10° NW 20:00:49 87° NNE 20:00:58 81° ESE
STARLINK-1244 4.3 19:56:54 10° NW 20:00:55 45° NNE 20:02:10 34° ENE
USA 234 3.6 19:54:58 10° ENE 20:01:01 38° SE 20:07:00 10° SSW
STARLINK-1232 2.7 19:58:36 10° NW 20:01:44 88° NNE 20:01:50 83° ESE
STARLINK-1217 2.7 19:59:03 10° NW 20:02:11 89° NE 20:02:16 84° ESE
Abrixas rocket 1.9 19:59:15 10° WNW 20:02:07 79° WSW 20:02:07 79° WSW
Cosmos 1892 3.7 19:59:04 10° NNE 20:02:13 30° ENE 20:02:13 30° ENE
STARLINK-1208 2.7 19:59:28 10° NW 20:02:37 90° E 20:02:43 84° SE
H-2A R/B 3.7 19:58:18 10° SSW 20:02:54 32° W 20:07:25 10° NNW
STARLINK-1229 2.7 19:59:57 10° NW 20:03:04 89° SW 20:03:07 87° SE
STARLINK-1271 2.7 20:00:24 10° NW 20:03:32 89° SSW 20:03:34 87° SSE
STARLINK-1270 2.7 20:00:51 10° NW 20:03:59 88° SSW 20:03:59 88° SSW
ATLAS 5 CENTAUR R/B 3.0 20:00:17 10° WSW 20:04:12 38° NW 20:08:36 10° NNE
STARLINK-1154 2.7 20:01:18 10° NW 20:04:26 87° SW 20:04:26 87° SW
STARLINK-1197 2.7 20:02:13 10° NW 20:05:18 85° WSW 20:05:18 85° WSW
STARLINK-1189 2.8 20:02:39 10° NW 20:05:43 84° WSW 20:05:43 84° WSW
STARLINK-1138 4.2 20:01:48 10° NW 20:05:49 48° NNE 20:06:52 38° ENE
STARLINK-1198 2.8 20:03:07 10° WNW 20:06:10 82° WSW 20:06:10 82° WSW
STARLINK-1188 2.8 20:03:32 10° WNW 20:06:35 81° WSW 20:06:35 81° WSW
STARLINK-1235 3.1 20:04:13 10° WNW 20:07:18 62° SW 20:07:18 62° SW
ATLAS 2AS CENTAUR R/B 3.7 20:00:25 10° NW 20:07:25 45° WSW 20:13:00 14° S
STARLINK-1187 2.9 20:04:38 10° WNW 20:07:42 71° SW 20:07:42 71° SW
STARLINK-1199 2.9 20:05:30 10° WNW 20:08:31 77° WSW 20:08:31 77° WSW
STARLINK-1191 2.9 20:05:56 10° WNW 20:08:56 75° WSW 20:08:56 75° WSW
STARLINK-1210 2.9 20:06:24 10° WNW 20:09:23 74° W 20:09:23 74° W
STARLINK-1221 3.0 20:06:52 10° WNW 20:09:49 73° W 20:09:49 73° W
STARLINK-1219 3.0 20:07:18 10° WNW 20:10:15 72° W 20:10:15 72° W
COSMOS 2455 3.0 20:04:37 10° NW 20:10:37 69° WSW 20:13:57 27° SSE
STARLINK-1143 4.1 20:06:45 10° NW 20:10:49 51° NNE 20:11:39 43° ENE
STARLINK-1222 3.0 20:07:45 10° WNW 20:10:40 70° W 20:10:40 70° W
STARLINK-1211 3.0 20:08:13 10° WNW 20:11:07 69° W 20:11:07 69° W
STARLINK-1214 3.1 20:08:39 10° WNW 20:11:33 68° W 20:11:33 68° W
STARLINK-1245 3.1 20:09:08 10° WNW 20:11:57 66° W 20:11:57 66° W
STARLINK-1238 3.1 20:09:33 10° WNW 20:12:25 66° W 20:12:25 66° W
STARLINK-1205 3.2 20:10:29 10° WNW 20:13:16 62° W 20:13:16 62° W
STARLINK-1204 3.2 20:10:57 10° WNW 20:13:42 61° W 20:13:42 61° W
ERBS 3.0 20:11:15 10° NW 20:14:20 44° NNE 20:14:20 44° NNE
STARLINK-1241 3.9 20:11:46 10° NW 20:15:51 55° NNE 20:16:28 49° ENE
IGS 5A 4.3 20:20:27 35° NE 20:20:27 35° NE 20:23:50 10° N
STARLINK-1239 3.8 20:16:43 10° NW 20:20:50 59° NNE 20:21:14 55° ENE
Cosmos 1300 3.7 20:18:02 12° SSW 20:21:26 46° WNW 20:25:08 10° N
Resurs 1-3 4.4 20:18:55 22° SSW 20:21:26 48° W 20:25:41 10° NNW
SAR-Lupe-2 4.0 20:18:26 10° NNE 20:21:15 51° NNE 20:21:15 51° NNE
ATLAS CENTAUR R/B 3.3 20:19:44 10° N 20:22:10 16° NE 20:22:10 16° NE
Spot 2 Rocket 3.5 20:22:15 50° ESE 20:23:17 62° ENE 20:28:20 10° N
STARLINK-1240 3.7 20:21:42 10° NW 20:25:49 63° NNE 20:26:01 62° NE
Cosmos 1850 Rocket 3.8 20:24:21 39° S 20:26:14 68° ESE 20:31:23 10° NNE
Cosmos 841 Rocket 4.3 20:24:28 10° N 20:29:17 34° ENE 20:29:32 34° ENE
Terra 3.4 20:29:53 21° NE 20:29:53 21° NE 20:32:54 10° NNE
Cosmos 2082 Rocket 4.3 20:34:09 12° ENE 20:34:09 12° ENE 20:34:35 10° NE
In-Cosmos 22 Rocket 4.2 20:24:42 10° N 20:30:35 87° W 20:32:45 41° S
STARLINK-1216 3.7 20:26:39 10° NW 20:30:47 68° NNE 20:30:47 68° NNE
SPOT 5 4.0 20:31:40 25° NE 20:31:40 25° NE 20:34:25 10° N
Meteor 2-10 Rocket 4.0 20:33:51 42° ENE 20:33:51 42° ENE 20:38:21 10° NNE
MetOp-B 4.0 20:32:14 50° SSE 20:33:42 88° ENE 20:39:05 10° NNW
SL-08 R/B 4.5 20:29:20 10° N 20:35:28 63° E 20:36:45 52° SE
STARLINK-1237 3.7 20:31:36 10° NW 20:35:33 71° N 20:35:33 71° N
Cosmos 1833 Rocket 3.9 20:39:01 27° ENE 20:39:01 27° ENE 20:41:58 10° NE
STARLINK-1202 3.8 20:36:36 10° NW 20:40:21 69° NNW 20:40:21 69° NNW
Cosmos 468 Rocket 3.8 20:36:44 10° NNW 20:41:56 89° WSW 20:42:31 71° SSE
Cosmos 192 4.4 20:37:43 10° NNW 20:42:40 71° WSW 20:43:22 61° SSW
SL-4 R/B 3.7 20:43:37 10° NW 20:46:21 22° N 20:46:33 22° N
ERS-1 Rocket 3.3 20:47:01 50° ENE 20:47:01 50° ENE 20:51:32 10° N
Cosmos 1408 4.2 20:44:58 10° N 20:46:55 29° N 20:46:55 29° N
STARLINK-1246 4.1 20:46:33 10° NW 20:49:54 57° WNW 20:49:54 57° WNW
RESURS DK-1 3.3 20:47:13 10° NNW 20:50:15 41° NNE 20:50:15 41° NNE
BREEZE M DEB (TANK) 3.7 20:46:41 10° W 20:53:04 46° NNW 20:53:26 44° N
Cosmos 1570 Rocket 4.0 20:49:18 10° NNW 20:54:32 67° ENE 20:54:32 67° ENE
STARLINK-1224 4.4 20:51:33 10° WNW 20:54:43 51° WNW 20:54:43 51° WNW
Okean 3 Rocket 4.4 20:51:24 10° N 20:54:34 42° NNE 20:54:34 42° NNE
Meteor 2-12 Rocket 4.4 20:50:03 10° N 20:56:09 78° W 20:57:32 55° SSW
COSMOS 2406 3.1 20:54:52 48° SSW 20:56:33 88° WNW 21:02:18 10° NNE
Resurs 01 Rocket 3.2 20:55:17 25° SW 20:56:37 29° W 21:00:30 10° NW
Cosmos 2058 3.8 20:53:34 10° NNW 20:57:23 45° W 20:57:23 45° W
STARLINK-1203 4.5 20:53:55 10° WNW 20:57:04 48° WNW 20:57:04 48° WNW
CZ-4C R/B 3.6 20:53:01 10° NNW 20:59:42 43° NE 21:01:49 36° ENE
CZ-2C R/B 4.4 21:00:50 10° N 21:05:16 30° WNW 21:09:43 10° SW
Cosmos 2151 4.1 21:04:47 10° N 21:07:34 41° N 21:07:34 41° N
Cosmos 1697 Rocket 2.8 21:09:15 10° NNW 21:14:29 67° NNE 21:14:29 67° NNE
Cosmos 2369 3.8 21:09:23 10° NNW 21:14:34 65° NNE 21:14:34 65° NNE
SPOT 1/Viking Rocket 4.2 21:30:43 50° W 21:30:43 50° W 21:35:29 10° NNW
Cosmos 1656 4.3 21:27:44 10° NW 21:32:50 48° W 21:32:50 48° W
Cosmos 540 Rocket 4.1 21:30:24 10° NNW 21:34:20 52° NW 21:34:20 52° NW
SL-16 R/B 4.0 21:32:16 10° N 21:36:11 21° NE 21:36:11 21° NE
Nadezhda 3 Rocket 4.2 21:41:26 66° W 21:41:39 66° W 21:47:55 10° N
Cosmos 2322 Rocket 4.1 21:39:22 10° N 21:43:04 20° NE 21:43:04 20° NE
USA 234 3.4 21:37:46 10° NE 21:44:15 68° NW 21:50:44 10° WSW
Cosmos 1980 Rocket 2.8 21:39:31 10° NNW 21:43:48 50° N 21:43:48 50° N
Meteor 2-3 Rocket 4.4 21:51:01 10° NNW 21:55:21 53° NNW 21:55:21 53° NNW
ATLAS CENTAUR R/B 4.2 21:57:43 10° NW 21:58:21 14° NW 21:58:21 14° NW
Terra 3.6 22:08:45 29° NW 22:08:45 29° NW 22:11:20 10° NNW
Mayak 1.5 22:04:13 10° N 22:04:58 15° N 22:04:58 15° N
Cosmos 2082 Rocket 3.4 22:15:56 39° N 22:15:56 39° N 22:19:39 10° NNE
Cosmos 1833 Rocket 4.0 22:20:38 34° WNW 22:20:44 34° NW 22:25:53 10° N
Cosmos 2344 4.4 22:27:02 10° NW 22:36:55 87° SW 22:38:34 72° SSE
CZ-4C R/B 3.5 22:41:25 10° NW 22:47:00 49° WNW 22:47:00 49° WNW
SL-16 R/B 4.0 23:15:34 10° NNW 23:18:02 27° NNW 23:18:02 27° NNW
Cosmos 2360 Rocket 3.9 23:16:25 10° NNW 23:19:17 29° N 23:19:17 29° N
Cosmos 2322 Rocket 4.0 23:22:30 10° NNW 23:24:52 26° NNW 23:24:52 26° NNW
Cosmos 2333 Rocket 4.0 23:39:05 10° N 23:42:25 27° NNE 23:42:25 27° NNE
SL-16 R/B 4.4 23:48:42 21° ENE 23:49:20 21° ENE 23:53:46 10° NNE
